FW6834 Weather Reports


Display with metric or nautical units.
time (UTC)temp
F
wind
direction
speed
MPH
gust
MPH
rain 1hr
in
rain 24hr
in
rain mn
in
humidity
%
barometer
mb
20260906200602 106 49 6.0 7.0 0.00 0.00 0.00 28 1052.8
20260906195102 106 128 3.0 7.0 0.00 0.00 0.00 27 1053.2
20260906194102 107 147 5.0 7.0 0.00 0.00 0.00 27 1053.2
20260906185602 99 50 0.0 7.0 0.00 0.00 0.00 37 1053.8
20260906175602 99 158 7.0 9.0 0.00 0.00 0.00 36 1054.5
20260906174102 103 142 3.0 4.0 0.00 0.00 0.00 34 1054.9
20260906171602 102 178 3.0 8.0 0.00 0.00 0.00 34 1055.2
20260906170103 101 176 1.0 5.0 0.00 0.00 0.00 36 1055.5
20260906164602 98 188 4.0 5.0 0.00 0.00 0.00 39 1055.9
20260906163102 99 256 2.0 6.0 0.00 0.00 0.00 37 1055.9
20260906161602 99 266 4.0 4.0 0.00 0.00 0.00 38 1055.9
20260906160103 99 321 4.0 4.0 0.00 0.00 0.00 37 1055.5
20260906154602 99 166 2.0 4.0 0.00 0.00 0.00 38 1055.5
20260906153102 98 228 0.0 3.0 0.00 0.00 0.00 40 1055.5
20260906151602 95 217 2.0 5.0 0.00 0.00 0.00 42 1055.5
20260906145102 94 240 2.0 6.0 0.00 0.00 0.00 44 1055.5
20260906143602 93 181 2.0 3.0 0.00 0.00 0.00 46 1055.2
20260906142102 92 145 0.0 2.0 0.00 0.00 0.00 47 1055.5
20260906140602 91 154 0.0 2.0 0.00 0.00 0.00 48 1055.2
20260906135102 87 174 2.0 4.0 0.00 0.00 0.00 53 1055.2
20260906133603 85 185 1.0 3.0 0.00 0.00 0.00 56 1054.9
20260906132103 82 163 0.0 3.0 0.00 0.00 0.00 59 1054.9
20260906130602 81 159 0.0 0.0 0.00 0.00 0.00 61 1054.9
20260906125103 80 146 0.0 0.0 0.00 0.00 0.00 62 1054.5
20260906123602 79 148 0.0 0.0 0.00 0.00 0.00 64 1054.5
20260906122102 78 151 0.0 0.0 0.00 0.00 0.00 65 1054.2
20260906120602 78 158 0.0 0.0 0.00 0.00 0.00 64 1054.2
20260906115102 79 142 0.0 0.0 0.00 0.00 0.00 64 1054.2
20260906113603 79 116 2.0 2.0 0.00 0.00 0.00 64 1053.8
20260906112103 79 136 0.0 2.0 0.00 0.00 0.00 63 1053.8
20260906105102 79 150 0.0 0.0 0.00 0.00 0.00 62 1053.5
20260906103602 79 143 0.0 0.0 0.00 0.00 0.00 62 1053.5
20260906102102 80 163 0.0 2.0 0.00 0.00 0.00 61 1053.2
20260906100602 80 151 0.0 0.0 0.00 0.00 0.00 61 1053.2
20260906095102 81 156 0.0 0.0 0.00 0.00 0.00 59 1053.5
20260906092102 82 121 1.0 2.0 0.00 0.00 0.00 58 1053.5
20260906083603 82 146 0.0 0.0 0.00 0.00 0.00 56 1053.2
20260906080603 82 155 0.0 0.0 0.00 0.00 0.00 55 1053.2
20260906075104 82 139 0.0 0.0 0.00 0.00 0.00 55 1053.2
20260906073602 83 138 0.0 0.0 0.00 0.00 0.00 54 1053.2
20260906072102 83 154 0.0 0.0 0.00 0.00 0.00 53 1053.2
20260906071102 83 149 0.0 0.0 0.00 0.00 0.00 53 1053.2
20260906065602 83 158 0.0 0.0 0.00 0.00 0.00 53 1053.2
20260906063102 84 138 0.0 0.0 0.00 0.00 0.00 51 1053.2
20260906061602 85 167 2.0 2.0 0.00 0.00 0.00 50 1053.5
20260906054602 86 164 0.0 0.0 0.00 0.00 0.00 49 1053.2
20260906053102 86 157 0.0 1.0 0.00 0.00 0.00 48 1052.8
20260906051604 87 162 0.0 3.0 0.00 0.00 0.00 48 1053.2
20260906045102 87 159 0.0 1.0 0.00 0.00 0.00 48 1052.8
20260906042103 88 158 0.0 2.0 0.00 0.00 0.00 46 1052.8
20260906041102 89 161 0.0 1.0 0.00 0.00 0.00 46 1053.2
20260906034604 90 160 2.0 4.0 0.00 0.00 0.00 44 1053.2
20260906033103 90 157 2.0 4.0 0.00 0.00 0.00 44 1052.8
20260906031603 90 163 5.0 5.0 0.00 0.00 0.00 43 1052.8
20260906023103 92 154 2.0 4.0 0.00 0.00 0.00 41 1052.5
20260906012102 94 132 3.0 5.0 0.00 0.00 0.00 38 1051.8
20260906005603 96 152 3.0 7.0 0.00 0.00 0.00 37 1051.8
20260906001602 98 127 6.0 8.0 0.00 0.00 0.00 34 1051.5
20260905232102 100 179 4.0 4.0 0.00 0.00 0.00 32 1051.1
20260905230603 101 207 2.0 8.0 0.00 0.00 0.00 32 1051.1
20260905223602 102 79 2.0 6.0 0.00 0.00 0.00 31 1051.1
20260905222102 103 236 3.0 9.0 0.00 0.00 0.00 31 1051.1
20260905213602 103 190 13.0 13.0 0.00 0.00 0.00 29 1051.5
20260905212103 102 166 3.0 10.0 0.00 0.00 0.00 30 1051.8
20260905205102 103 185 7.0 10.0 0.00 0.00 0.00 31 1052.2